Voltar ao catálogo

STARLINK-4782

AtivoComunicaçõesVLEO
NORAD 53933·PAYLOAD·🇺🇸 United States

Lançado Sep 24, 2022 de Cape Canaveral Space Force Station

Loading…

Próximas Passagens (próximas 24 horas)

TLE

AtualizadoSource: CelesTrak SupGP

Época: Sep 15, 2026, 02:02 UTC

1 53933C 22119AZ  26258.08520833  .00006353  00000+0  39848-3 0  2589
2 53933  53.1589 173.1238 0001579  76.1785 133.0511 15.08824760    13

Acompanhe STARLINK-4782 em tempo real com AllMySat

Download on the App Store